User: anonymous   Login
Location: Hickory_CSC
(35.7330°N, 81.3330°W)
Time: 06:54:21
(UTC-04:00)
Language:

Cosmos 1356 Rocket - Orbit

View from above orbital plane
View from above orbital plane
View from above satellite
View from above satellite

Ground track
Ground track

The orbit data is extracted from the following two-line orbital elements,

1 13154U 82039B   18174.96663330 +.00000170 +00000-0 +12112-4 0  9992
2 13154 081.1822 170.6627 0040574 159.5122 200.7736 14.98506444959139
Epoch (UTC): 23 June 2018 23:11:57
Eccentricity: 0.0040574
inclination: 81.1822°
perigee height: 543 km
apogee height: 600 km
right ascension of ascending node: 170.6627°
argument of perigee: 159.5122°
revolutions per day: 14.98506444
mean anomaly at epoch: 200.7736°
orbit number at epoch: 95913

The dashed part of the orbit path shows where the satellite is in the earth's shadow,  

DLR